User: anonymous   Login
Location: Unspecified
(0.0000°N, 0.0000°E)
Time: 09:00:05
(UTC+00:00)
Language:

Cubesat XI-IV - Orbit

View from above orbital plane
View from above orbital plane
View from above satellite
View from above satellite

Ground track
Ground track

The orbit data is extracted from the following two-line orbital elements,

1 27848U 03031J   21168.68062202  .00000048  00000-0  41422-4 0  9999
2 27848  98.6848 177.4545 0011033  91.5905 268.6536 14.21891072931873
Epoch (UTC): 17 June 2021 16:20:05
Eccentricity: 0.0011033
inclination: 98.6848°
perigee height: 811 km
apogee height: 827 km
right ascension of ascending node: 177.4545°
argument of perigee: 91.5905°
revolutions per day: 14.21891072
mean anomaly at epoch: 268.6536°
orbit number at epoch: 93187

The dashed part of the orbit path shows where the satellite is in the earth's shadow,  

DLR